Flag for Switzerland Weather past 2 weeks in La-Chaux-de-Fonds, Neuchâtel, Switzerland

Now
39 °F

Light rain. Partly sunny.


Feels Like: 30 °F
Forecast: 27 / 37 °F
Wind: 16 mph from Southwest

Location: Les Eplatures

Current Time: Mar 2, 2015 at 9:28:23 AM

Latest Report: Mar 2, 2015 at 8:50 AM


Visibility: N/A

Pressure: 29.83 "Hg

Humidity: 93%

Dew point: 37 °F

Location of La-Chaux-de-FondsLocation

Historic Weather in La-Chaux-de-Fonds — Graph

°F

La-Chaux-de-Fonds temperature yesterday

Maximum temperature yesterday: 43 °F (at 1:50 PM)
Minimum temperature yesterday: 28 °F (at 12:20 AM)
Average temperature yesterday: 37 °F

Past Weeks' High & Low Weather Summary

 TemperatureHumidityPressure
High45 °F (Feb 19, 12:20 PM)100% (Feb 15, 8:20 AM)30.51 "Hg (Feb 15, 8:20 AM)
Low12 °F (Feb 22, 11:20 PM)31% (Feb 20, 4:20 PM)29.50 "Hg (Feb 21, 8:20 AM)
Average31 °F83%29.97 "Hg
* Reported Feb 15 8:20 AM — Mar 2 8:20 AM, La-Chaux-de-Fonds, Weather by CustomWeather, © 2015

Note: Actual official high and low records may vary slightly from our data, if they occured in-between our weather recording intervals... More about our weather records

Advertising

La-Chaux-de-Fonds weather history for previous 24 hours

 ConditionsComfort  
Time TempWeatherWind HumidityBarometerVisibility
8:20 AM
Mon, Mar 2
39 °FLight rain. Partly sunny.15 mph93%29.83 "HgN/A
7:50 AM39 °FPassing clouds.13 mph93%29.83 "HgN/A
7:20 AM39 °FLight rain. Partly cloudy.14 mph93%29.80 "HgN/A
6:50 AM39 °FLight rain. Partly cloudy.15 mph93%29.80 "HgN/A
6:20 AM39 °FLight rain. Passing clouds.15 mph93%29.80 "HgN/A
5:50 AM39 °FLight rain. Passing clouds.12 mph93%29.80 "HgN/A
5:20 AM39 °FLight rain. Passing clouds.15 mph93%29.80 "HgN/A
4:50 AM41 °FLight rain. Passing clouds.13 mph93%29.80 "HgN/A
4:20 AM41 °FLight rain. Passing clouds.14 mph93%29.80 "HgN/A
3:50 AM41 °FRain. Passing clouds.12 mph93%29.80 "Hg3 mi
3:20 AM41 °FRain showers. Passing clouds.14 mph93%29.80 "Hg6 mi
2:50 AM43 °FSprinkles. Low clouds.16 mph93%29.80 "HgN/A
2:20 AM43 °FLow clouds.17 mph93%29.80 "HgN/A
1:50 AM43 °FSprinkles. Low clouds.15 mph93%29.80 "HgN/A
1:20 AM43 °FLow clouds.17 mph93%29.83 "HgN/A
12:50 AM43 °FLight rain. Passing clouds.10 mph93%29.83 "HgN/A
12:20 AM41 °FLight rain. Passing clouds.12 mph93%29.83 "HgN/A
11:50 PM
Sun, Mar 1
41 °FLight rain. Partly cloudy.8 mph93%29.83 "HgN/A
11:20 PM41 °FLight rain. Passing clouds.7 mph93%29.83 "HgN/A
10:50 PM41 °FSprinkles. Partly cloudy.10 mph93%29.86 "HgN/A
10:20 PM41 °FSprinkles. Passing clouds.10 mph93%29.86 "HgN/A
9:50 PM43 °FLight rain. Passing clouds.13 mph87%29.86 "HgN/A
9:20 PM43 °FPassing clouds.12 mph87%29.86 "HgN/A
8:20 PM41 °FPassing clouds.9 mph93%29.86 "HgN/A
7:50 PM41 °FSprinkles. Partly cloudy.12 mph93%29.86 "HgN/A
7:20 PM41 °FPassing clouds.6 mph93%29.86 "HgN/A
6:50 PM41 °FPartly sunny.9 mph93%29.86 "HgN/A
6:20 PM41 °FPartly sunny.14 mph93%29.86 "HgN/A
5:50 PM41 °FPartly sunny.13 mph100%29.89 "HgN/A
5:20 PM41 °FSprinkles. Partly sunny.14 mph100%29.89 "HgN/A
4:50 PM43 °FLow clouds.14 mph93%29.86 "HgN/A
4:20 PM43 °FDrizzle. Partly sunny.15 mph93%29.86 "Hg4 mi
3:50 PM43 °FDrizzle. Partly sunny.13 mph93%29.86 "Hg4 mi
3:20 PM43 °FDrizzle. Partly sunny.14 mph93%29.86 "Hg4 mi
2:50 PM43 °FDrizzle. Broken clouds.12 mph93%29.86 "Hg4 mi
2:20 PM41 °FDrizzle. Partly sunny.8 mph100%29.86 "Hg4 mi
1:50 PM43 °FDrizzle. Low clouds.9 mph93%29.89 "HgN/A
1:20 PM41 °FDrizzle. Low clouds.10 mph93%29.89 "Hg4 mi
12:50 PM41 °FDrizzle. Partly sunny.9 mph93%29.89 "Hg4 mi
12:20 PM39 °FDrizzle. Partly sunny.7 mph100%29.89 "Hg4 mi
11:50 AM39 °FPartly sunny.8 mph100%29.92 "Hg4 mi
11:20 AM39 °FLight rain. Partly sunny.6 mph93%29.92 "HgN/A
10:50 AM39 °FLight rain. Broken clouds.6 mph93%29.89 "HgN/A
10:20 AM37 °FSprinkles. Fog.6 mph93%29.89 "HgN/A
9:50 AM37 °FSprinkles. Low clouds.5 mph93%29.89 "Hg4 mi
9:20 AM36 °FLight rain. Low clouds.3 mph93%29.89 "HgN/A
Weather by CustomWeather, © 2015

See weather overviewHow to use our weather pages